Senai International Airport
WMKJ : now visible

Airfield :











YOU CAN JOIN US ON...

 
LOGIN :

Register | Disclaimer

   EN    FR    IT 

 









Legend :    VFR   Marginal VFR   IFR   Intensive IFR   Very Intensive IFR
Visi :
Ceiling :
>= 8 km
>= 3000ft
5 to 8 km
1000 to 3000 ft
1500m to 5 km
500 to 1000 ft
800 to 1500m
200 to 500 ft
< 800m
< 200 ft
Symbols :   Thunderstorms  Fog  Heavy snow  Heavy precipitations  Wind > 20 kt






- Airport Elevation : 135 ft
- IATA code : JHB


WMKJ - Senai International

CURRENT METAR :
  • 172300Z VRB04KT 9999 FEW017CB 24/23 Q1013

EXPIRED METARs :
  • 172200Z 00000KT 6000 FEW008 23/23 Q1011
  • 172100Z VRB01KT 7000 FEW008 23/23 Q1011

TAF TAF WMKJ
Valid from the 18 at 00:00 until the 19 at 00:00 UTC


172300Z 1800/1900 VRB02KT 9999 FEW018
TEMPO 1800/1803 4000 TSRA FEW006 FEW017CB SCT018
PROB30
TEMPO 1807/1811 21006KT 5000 TSRA FEW008 FEW016CB SCT018
WMFC FIR / Asia



MET'MAP, your aeronautical weather chart ! - Copyright ORBIFLY December 2007 - Disclaimer

ORBIFLY MET'MAP TEAM :

Programming & Development : Alexandra Zaïnal
Concept & original design : Baudouin d'Aumeries
Assistance for programming : Marc-Olivier Méhu
Technical & hardware support : Manuel Goepfert

Contact : metmap@orbifly.com




SOURCES & CREDITS :

   NOAA       Earth
Advisory